Lobo

Go HERE for most recent data if this page is not up to date.

Jump to table bottom
Date/Time Temp deg F RH % 24 Hr Snow (in) Snow Depth (in) H2O (in)
04/24 12:00 48.5 20 -0.0 36.2 0.00
04/24 11:00 46.9 17 -0.0 36.5 0.00
04/24 10:00 44.3 28 -0.0 36.5 0.00
04/24 09:00 40.9 27 -0.0 36.7 0.00
04/24 08:00 37.4 29 -0.0 36.6 0.00
04/24 07:00 36.4 35 -0.0 36.7 0.00
04/24 06:00 36.0 33 0.0 36.8 0.00
04/24 05:00 36.1 36 -0.0 36.8 0.00
04/24 04:00 37.0 33 -0.0 36.7 0.00
04/24 03:00 36.6 36 -0.0 36.7 0.00
04/24 02:00 36.5 35 -0.0 36.7 0.00
04/24 01:00 37.4 34 0.0 36.8 0.00
04/24 00:00 36.7 32 -0.0 36.7 0.00
04/23 23:00 36.6 38 0.0 36.9 0.00
04/23 22:00 37.0 34 -0.0 36.8 0.00
04/23 21:00 37.2 33 0.0 36.8 0.00
04/23 20:00 37.8 32 0.0 36.9 0.00
04/23 19:00 39.7 32 0.0 36.8 0.00
04/23 18:00 41.3 23 0.0 36.8 0.00
04/23 17:00 42.6 23 -0.0 36.8 0.00
04/23 16:00 42.9 26 -0.0 36.8 0.00
04/23 15:00 41.6 18 -0.0 37.1 0.00
04/23 14:00 40.5 27 -0.0 37.6 0.00
04/23 13:00 39.3 23 0.0 37.9 0.00
04/23 12:00 37.1 33 -0.0 37.8 0.00
04/23 11:00 33.5 29 -0.0 37.9 0.00
04/23 10:00 30.1 32 -0.0 37.9 0.00
04/23 09:00 27.2 35 -0.0 37.9 0.00
04/23 08:00 25.1 34 0.0 37.9 0.00
04/23 07:00 22.8 37 0.0 37.9 0.00
04/23 06:00 22.4 41 -0.0 38.0 0.00
04/23 05:00 22.5 39 -0.0 38.0 0.00
04/23 04:00 23.7 39 -0.0 37.9 0.00
04/23 03:00 24.5 36 0.0 38.0 0.00
04/23 02:00 25.0 36 0.0 38.0 0.00
04/23 01:00 25.2 36 0.0 38.0 0.00
04/23 00:00 25.3 35 -0.0 38.0 0.00
.